Wetterdaten: Woche 06.11.17 - 12.11.17 (KW45)
Datum Zeit Temperatur Luftfeuchte Luftdruck Niederschlag Windrichtung Sonnenschein Solar Wind
06.11.2017 00:00 4,0 C 96 % 1014,0 hPa 0,2 l/m W-NW 0,00 h 0 W/m 0,9 km/h (0 Bft)
06.11.2017 01:00 3,9 C 96 % 1014,6 hPa 0,4 l/m N 0,00 h 0 W/m 1,5 km/h (1 Bft)
06.11.2017 02:00 3,8 C 97 % 1015,1 hPa 0,6 l/m N 0,00 h 0 W/m 2,5 km/h (1 Bft)
06.11.2017 03:00 3,5 C 96 % 1015,4 hPa 0,8 l/m W-NW 0,00 h 0 W/m 3,7 km/h (1 Bft)
06.11.2017 04:00 3,3 C 97 % 1015,7 hPa 0,6 l/m W-NW 0,00 h 0 W/m 1,9 km/h (1 Bft)
06.11.2017 05:00 3,1 C 97 % 1016,2 hPa 0,8 l/m NW 0,00 h 0 W/m 4,5 km/h (1 Bft)
06.11.2017 06:00 3,0 C 97 % 1016,8 hPa 0,0 l/m NW 0,00 h 0 W/m 2,5 km/h (1 Bft)
06.11.2017 07:00 3,1 C 97 % 1017,2 hPa 0,2 l/m NW 0,00 h 10 W/m 4,0 km/h (1 Bft)
06.11.2017 08:00 3,3 C 97 % 1017,9 hPa 0,0 l/m NW 0,00 h 28 W/m 5,9 km/h (2 Bft)
06.11.2017 09:00 3,7 C 98 % 1018,6 hPa 0,2 l/m NW 0,00 h 86 W/m 10,3 km/h (2 Bft)
06.11.2017 10:00 4,3 C 97 % 1019,1 hPa 0,0 l/m N-NO 0,00 h 116 W/m 13,7 km/h (3 Bft)
06.11.2017 11:00 4,6 C 94 % 1019,3 hPa 0,0 l/m N-NO 0,00 h 104 W/m 16,5 km/h (3 Bft)
06.11.2017 12:00 4,5 C 93 % 1019,3 hPa 0,0 l/m N-NO 0,00 h 112 W/m 14,9 km/h (3 Bft)
06.11.2017 13:00 4,9 C 92 % 1019,1 hPa 0,0 l/m N-NO 0,00 h 97 W/m 14,0 km/h (3 Bft)
06.11.2017 14:00 4,9 C 91 % 1019,1 hPa 0,0 l/m NO 0,00 h 72 W/m 14,5 km/h (3 Bft)
06.11.2017 15:00 5,0 C 90 % 1019,3 hPa 0,0 l/m NO 0,00 h 48 W/m 15,7 km/h (3 Bft)
06.11.2017 16:00 5,0 C 88 % 1019,6 hPa 0,0 l/m NO 0,00 h 21 W/m 17,2 km/h (3 Bft)
06.11.2017 17:00 4,7 C 89 % 1020,2 hPa 0,0 l/m N-NO 0,00 h 0 W/m 13,3 km/h (3 Bft)
06.11.2017 18:00 4,4 C 89 % 1020,8 hPa 0,0 l/m NO 0,00 h 0 W/m 15,4 km/h (3 Bft)
06.11.2017 19:00 4,2 C 90 % 1020,9 hPa 0,0 l/m N-NO 0,00 h 0 W/m 15,6 km/h (3 Bft)
06.11.2017 20:00 3,9 C 92 % 1020,8 hPa 0,0 l/m N-NO 0,00 h 0 W/m 14,6 km/h (3 Bft)
06.11.2017 21:00 3,9 C 92 % 1020,7 hPa 0,0 l/m NO 0,00 h 0 W/m 13,7 km/h (3 Bft)
06.11.2017 22:00 4,1 C 93 % 1020,4 hPa 0,0 l/m NO 0,00 h 0 W/m 16,1 km/h (3 Bft)
06.11.2017 23:00 3,9 C 94 % 1019,9 hPa 0,0 l/m NO 0,00 h 0 W/m 16,2 km/h (3 Bft)
07.11.2017 00:00 3,9 C 94 % 1019,7 hPa 0,0 l/m NO 0,00 h 0 W/m 17,4 km/h (3 Bft)
07.11.2017 01:00 4,0 C 94 % 1019,4 hPa 0,0 l/m NO 0,00 h 0 W/m 14,8 km/h (3 Bft)
07.11.2017 02:00 4,1 C 95 % 1019,0 hPa 0,0 l/m NO 0,00 h 0 W/m 13,8 km/h (3 Bft)
07.11.2017 03:00 4,1 C 96 % 1018,5 hPa 0,0 l/m O-NO 0,00 h 0 W/m 14,4 km/h (3 Bft)
07.11.2017 04:00 4,1 C 96 % 1018,0 hPa 0,0 l/m NO 0,00 h 0 W/m 15,0 km/h (3 Bft)
07.11.2017 05:00 4,1 C 97 % 1017,4 hPa 0,0 l/m NO 0,00 h 0 W/m 14,0 km/h (3 Bft)
07.11.2017 06:00 4,1 C 97 % 1017,2 hPa 0,2 l/m NO 0,00 h 0 W/m 11,0 km/h (2 Bft)
07.11.2017 07:00 4,2 C 98 % 1017,0 hPa 0,2 l/m NO 0,00 h 7 W/m 13,8 km/h (3 Bft)
07.11.2017 08:00 4,4 C 98 % 1016,6 hPa 0,0 l/m O-NO 0,00 h 9 W/m 12,9 km/h (3 Bft)
07.11.2017 09:00 4,7 C 98 % 1016,3 hPa 0,0 l/m NO 0,00 h 15 W/m 13,2 km/h (3 Bft)
07.11.2017 10:00 4,9 C 98 % 1015,9 hPa 0,4 l/m O-NO 0,00 h 31 W/m 12,9 km/h (3 Bft)
07.11.2017 11:00 5,2 C 98 % 1015,3 hPa 0,2 l/m O-NO 0,00 h 39 W/m 10,4 km/h (2 Bft)
07.11.2017 12:00 5,2 C 98 % 1014,5 hPa 0,2 l/m O 0,00 h 61 W/m 14,2 km/h (3 Bft)
07.11.2017 13:00 5,2 C 98 % 1014,1 hPa 0,0 l/m O 0,00 h 48 W/m 9,5 km/h (2 Bft)
07.11.2017 14:00 5,3 C 98 % 1013,8 hPa 0,0 l/m O-NO 0,00 h 38 W/m 9,9 km/h (2 Bft)
07.11.2017 15:00 5,1 C 97 % 1013,9 hPa 0,0 l/m O 0,00 h 12 W/m 6,6 km/h (2 Bft)
07.11.2017 16:00 4,8 C 97 % 1014,0 hPa 0,2 l/m O 0,00 h 6 W/m 2,7 km/h (1 Bft)
07.11.2017 17:00 4,6 C 97 % 1014,0 hPa 0,0 l/m N 0,00 h 0 W/m 0,0 km/h (0 Bft)
07.11.2017 18:00 4,4 C 97 % 1013,9 hPa 0,0 l/m N 0,00 h 0 W/m 0,0 km/h (0 Bft)
07.11.2017 19:00 4,3 C 97 % 1013,9 hPa 0,0 l/m N 0,00 h 0 W/m 0,0 km/h (0 Bft)
07.11.2017 20:00 4,3 C 97 % 1013,6 hPa 0,0 l/m N 0,00 h 0 W/m 0,0 km/h (0 Bft)
07.11.2017 21:00 4,3 C 97 % 1013,5 hPa 0,2 l/m N 0,00 h 0 W/m 0,0 km/h (0 Bft)
07.11.2017 22:00 4,3 C 98 % 1013,3 hPa 0,0 l/m N 0,00 h 0 W/m 0,1 km/h (0 Bft)
07.11.2017 23:00 4,3 C 98 % 1013,1 hPa 0,0 l/m N 0,00 h 0 W/m 0,0 km/h (0 Bft)
08.11.2017 00:00 4,3 C 98 % 1013,1 hPa 0,0 l/m O 0,00 h 0 W/m 2,3 km/h (1 Bft)
08.11.2017 01:00 4,3 C 98 % 1013,0 hPa 0,0 l/m S 0,00 h 0 W/m 7,2 km/h (2 Bft)
08.11.2017 02:00 4,3 C 98 % 1013,1 hPa 1,0 l/m S-SW 0,00 h 0 W/m 10,3 km/h (2 Bft)
08.11.2017 03:00 4,4 C 98 % 1013,1 hPa 0,2 l/m SW 0,00 h 0 W/m 11,0 km/h (2 Bft)
08.11.2017 04:00 4,2 C 98 % 1013,2 hPa 0,2 l/m SW 0,00 h 0 W/m 12,9 km/h (3 Bft)
08.11.2017 05:00 4,1 C 98 % 1013,4 hPa 0,2 l/m SW 0,00 h 0 W/m 11,2 km/h (2 Bft)
08.11.2017 06:00 4,0 C 98 % 1013,8 hPa 0,0 l/m W-SW 0,00 h 0 W/m 15,8 km/h (3 Bft)
08.11.2017 07:00 3,9 C 98 % 1014,3 hPa 0,0 l/m W-SW 0,00 h 6 W/m 14,2 km/h (3 Bft)
08.11.2017 08:00 4,0 C 98 % 1015,0 hPa 0,0 l/m SW 0,00 h 27 W/m 12,9 km/h (3 Bft)
08.11.2017 09:00 4,2 C 98 % 1015,4 hPa 0,0 l/m W-SW 0,00 h 100 W/m 15,8 km/h (3 Bft)
08.11.2017 10:00 4,8 C 96 % 1015,5 hPa 0,0 l/m W-SW 0,25 h 128 W/m 10,7 km/h (2 Bft)
08.11.2017 11:00 5,4 C 95 % 1015,7 hPa 0,0 l/m W-SW 0,00 h 132 W/m 3,2 km/h (1 Bft)
08.11.2017 12:00 5,5 C 94 % 1015,6 hPa 0,0 l/m W-SW 0,00 h 99 W/m 2,3 km/h (1 Bft)
08.11.2017 13:00 5,5 C 94 % 1015,9 hPa 0,0 l/m W-SW 0,00 h 74 W/m 11,7 km/h (2 Bft)
08.11.2017 14:00 5,2 C 95 % 1016,3 hPa 0,0 l/m S-SW 0,00 h 40 W/m 10,6 km/h (2 Bft)
08.11.2017 15:00 5,3 C 95 % 1016,6 hPa 0,0 l/m S-SW 0,00 h 25 W/m 7,6 km/h (2 Bft)
08.11.2017 16:00 5,3 C 95 % 1016,8 hPa 0,0 l/m N 0,00 h 7 W/m 0,0 km/h (0 Bft)
08.11.2017 17:00 5,2 C 95 % 1017,1 hPa 0,0 l/m N 0,00 h 0 W/m 0,0 km/h (0 Bft)
08.11.2017 18:00 5,0 C 95 % 1017,5 hPa 0,0 l/m N 0,00 h 0 W/m 0,0 km/h (0 Bft)
08.11.2017 19:00 4,8 C 96 % 1018,0 hPa 0,2 l/m N 0,00 h 0 W/m 0,0 km/h (0 Bft)
08.11.2017 20:00 4,8 C 96 % 1018,3 hPa 0,0 l/m N 0,00 h 0 W/m 0,0 km/h (0 Bft)
08.11.2017 21:00 4,7 C 96 % 1018,4 hPa 0,2 l/m N 0,00 h 0 W/m 0,0 km/h (0 Bft)
08.11.2017 22:00 4,7 C 97 % 1018,7 hPa 0,0 l/m N 0,00 h 0 W/m 0,0 km/h (0 Bft)
08.11.2017 23:00 4,6 C 97 % 1018,9 hPa 0,0 l/m N 0,00 h 0 W/m 0,0 km/h (0 Bft)
09.11.2017 00:00 4,6 C 97 % 1019,1 hPa 0,0 l/m N 0,00 h 0 W/m 0,0 km/h (0 Bft)
09.11.2017 01:00 4,6 C 97 % 1019,1 hPa 0,0 l/m N 0,00 h 0 W/m 0,0 km/h (0 Bft)
09.11.2017 02:00 4,5 C 97 % 1019,2 hPa 0,0 l/m N 0,00 h 0 W/m 0,0 km/h (0 Bft)
09.11.2017 03:00 4,6 C 98 % 1019,2 hPa 0,0 l/m N 0,00 h 0 W/m 0,0 km/h (0 Bft)
09.11.2017 04:00 4,6 C 98 % 1019,2 hPa 0,0 l/m N 0,00 h 0 W/m 0,0 km/h (0 Bft)
09.11.2017 05:00 4,6 C 98 % 1019,4 hPa 0,0 l/m N 0,00 h 0 W/m 0,0 km/h (0 Bft)
09.11.2017 06:00 4,7 C 98 % 1019,8 hPa 0,0 l/m N 0,00 h 0 W/m 0,5 km/h (0 Bft)
09.11.2017 07:00 4,6 C 98 % 1020,3 hPa 0,0 l/m N 0,25 h 20 W/m 0,0 km/h (0 Bft)
09.11.2017 08:00 4,7 C 98 % 1021,2 hPa 0,0 l/m N 0,00 h 27 W/m 0,0 km/h (0 Bft)
09.11.2017 09:00 4,9 C 98 % 1021,7 hPa 0,0 l/m N 0,00 h 46 W/m 0,0 km/h (0 Bft)
09.11.2017 10:00 5,3 C 98 % 1022,0 hPa 0,0 l/m N 0,00 h 64 W/m 0,0 km/h (0 Bft)
09.11.2017 11:00 5,7 C 97 % 1021,9 hPa 0,2 l/m N 0,00 h 52 W/m 0,0 km/h (0 Bft)
09.11.2017 12:00 5,8 C 96 % 1021,7 hPa 0,0 l/m N 0,00 h 67 W/m 0,0 km/h (0 Bft)
09.11.2017 13:00 6,0 C 95 % 1021,6 hPa 0,0 l/m N 0,00 h 70 W/m 0,0 km/h (0 Bft)
09.11.2017 14:00 6,1 C 95 % 1021,5 hPa 0,0 l/m S-SW 0,00 h 52 W/m 1,2 km/h (1 Bft)
09.11.2017 15:00 6,1 C 95 % 1022,0 hPa 0,0 l/m N 0,00 h 24 W/m 0,0 km/h (0 Bft)
09.11.2017 16:00 6,0 C 95 % 1022,3 hPa 0,0 l/m N 0,00 h 8 W/m 0,0 km/h (0 Bft)
09.11.2017 17:00 5,8 C 95 % 1022,8 hPa 0,0 l/m N 0,00 h 0 W/m 0,5 km/h (0 Bft)
09.11.2017 18:00 5,6 C 95 % 1023,3 hPa 0,0 l/m N 0,00 h 0 W/m 0,0 km/h (0 Bft)
09.11.2017 19:00 5,4 C 96 % 1023,5 hPa 0,0 l/m N 0,00 h 0 W/m 0,0 km/h (0 Bft)
09.11.2017 20:00 5,4 C 96 % 1023,8 hPa 0,0 l/m N 0,00 h 0 W/m 0,0 km/h (0 Bft)
09.11.2017 21:00 5,3 C 96 % 1023,8 hPa 0,0 l/m S-SW 0,00 h 0 W/m 0,4 km/h (0 Bft)
09.11.2017 22:00 5,2 C 97 % 1023,6 hPa 0,0 l/m N 0,00 h 0 W/m 0,3 km/h (0 Bft)
09.11.2017 23:00 5,1 C 97 % 1023,6 hPa 0,0 l/m N 0,00 h 0 W/m 0,0 km/h (0 Bft)
10.11.2017 00:00 5,0 C 97 % 1023,5 hPa 0,0 l/m N 0,00 h 0 W/m 0,7 km/h (0 Bft)
10.11.2017 01:00 4,9 C 97 % 1023,3 hPa 0,0 l/m N 0,00 h 0 W/m 0,0 km/h (0 Bft)
10.11.2017 02:00 4,8 C 97 % 1023,3 hPa 0,0 l/m S-SW 0,00 h 0 W/m 1,7 km/h (1 Bft)
10.11.2017 03:00 4,7 C 97 % 1022,4 hPa 0,0 l/m S-SW 0,00 h 0 W/m 2,9 km/h (1 Bft)
10.11.2017 04:00 4,6 C 97 % 1022,0 hPa 0,0 l/m S-SW 0,00 h 0 W/m 5,5 km/h (1 Bft)
10.11.2017 05:00 4,4 C 97 % 1021,6 hPa 0,0 l/m S-SW 0,00 h 0 W/m 5,7 km/h (1 Bft)
10.11.2017 06:00 4,4 C 97 % 1021,8 hPa 0,0 l/m S-SW 0,00 h 0 W/m 3,7 km/h (1 Bft)
10.11.2017 07:00 4,4 C 96 % 1021,8 hPa 0,0 l/m S-SW 0,00 h 12 W/m 6,4 km/h (2 Bft)
10.11.2017 08:00 4,5 C 96 % 1022,2 hPa 0,0 l/m SW 0,00 h 44 W/m 13,3 km/h (3 Bft)
10.11.2017 09:00 4,9 C 94 % 1022,0 hPa 0,0 l/m W-SW 0,00 h 106 W/m 18,2 km/h (3 Bft)
10.11.2017 10:00 5,3 C 89 % 1021,3 hPa 0,0 l/m W-SW 0,00 h 156 W/m 26,0 km/h (4 Bft)
10.11.2017 11:00 5,3 C 87 % 1020,7 hPa 0,0 l/m W-SW 0,00 h 117 W/m 22,1 km/h (4 Bft)
10.11.2017 12:00 5,3 C 87 % 1019,9 hPa 0,0 l/m W-SW 0,00 h 94 W/m 23,6 km/h (4 Bft)
10.11.2017 13:00 5,2 C 86 % 1019,1 hPa 0,0 l/m SW 0,00 h 64 W/m 28,8 km/h (5 Bft)
10.11.2017 14:00 5,0 C 89 % 1018,4 hPa 0,4 l/m W-SW 0,00 h 52 W/m 30,3 km/h (5 Bft)
10.11.2017 15:00 4,7 C 92 % 1018,3 hPa 0,2 l/m W-SW 0,00 h 32 W/m 24,9 km/h (4 Bft)
10.11.2017 16:00 4,4 C 93 % 1017,9 hPa 0,0 l/m W-SW 0,00 h 10 W/m 25,7 km/h (4 Bft)
10.11.2017 17:00 4,4 C 94 % 1017,7 hPa 0,4 l/m SW 0,00 h 0 W/m 21,0 km/h (4 Bft)
10.11.2017 18:00 4,5 C 95 % 1017,6 hPa 0,4 l/m W-SW 0,00 h 0 W/m 26,3 km/h (4 Bft)
10.11.2017 19:00 4,8 C 96 % 1017,8 hPa 0,0 l/m W-SW 0,00 h 0 W/m 26,6 km/h (4 Bft)
10.11.2017 20:00 5,0 C 95 % 1017,6 hPa 0,0 l/m SW 0,00 h 0 W/m 28,4 km/h (4 Bft)
10.11.2017 21:00 5,1 C 95 % 1017,3 hPa 0,2 l/m W-SW 0,00 h 0 W/m 24,5 km/h (4 Bft)
10.11.2017 22:00 5,3 C 95 % 1017,2 hPa 0,0 l/m W-SW 0,00 h 0 W/m 26,1 km/h (4 Bft)
10.11.2017 23:00 5,5 C 95 % 1017,1 hPa 0,0 l/m SW 0,00 h 0 W/m 22,2 km/h (4 Bft)
11.11.2017 00:00 5,7 C 95 % 1017,4 hPa 0,0 l/m W-SW 0,00 h 0 W/m 20,4 km/h (4 Bft)
11.11.2017 01:00 5,7 C 95 % 1017,4 hPa 0,0 l/m W-SW 0,00 h 0 W/m 18,1 km/h (3 Bft)
11.11.2017 02:00 5,6 C 95 % 1017,5 hPa 0,0 l/m W 0,00 h 0 W/m 12,6 km/h (3 Bft)
11.11.2017 03:00 5,2 C 94 % 1017,2 hPa 0,2 l/m W-NW 0,00 h 0 W/m 12,9 km/h (3 Bft)
11.11.2017 04:00 4,6 C 93 % 1017,1 hPa 0,0 l/m W-NW 0,00 h 0 W/m 14,0 km/h (3 Bft)
11.11.2017 05:00 4,4 C 94 % 1017,0 hPa 0,2 l/m W-NW 0,00 h 0 W/m 11,3 km/h (2 Bft)
11.11.2017 06:00 4,4 C 94 % 1016,9 hPa 0,0 l/m W-NW 0,00 h 0 W/m 5,2 km/h (1 Bft)
11.11.2017 07:00 4,2 C 95 % 1016,9 hPa 0,0 l/m W-SW 0,00 h 10 W/m 9,7 km/h (2 Bft)
11.11.2017 08:00 4,2 C 94 % 1016,9 hPa 0,0 l/m SW 0,00 h 25 W/m 13,0 km/h (3 Bft)
11.11.2017 09:00 4,9 C 95 % 1016,2 hPa 0,2 l/m SW 0,00 h 56 W/m 17,2 km/h (3 Bft)
11.11.2017 10:00 5,3 C 94 % 1015,2 hPa 0,2 l/m W-SW 0,00 h 76 W/m 20,8 km/h (4 Bft)
11.11.2017 11:00 5,7 C 94 % 1014,3 hPa 0,2 l/m W-SW 0,00 h 96 W/m 22,9 km/h (4 Bft)
11.11.2017 12:00 6,1 C 91 % 1013,1 hPa 0,2 l/m W-SW 0,00 h 63 W/m 26,3 km/h (4 Bft)
11.11.2017 13:00 6,1 C 92 % 1012,1 hPa 0,4 l/m W-SW 0,00 h 41 W/m 32,3 km/h (5 Bft)
11.11.2017 14:00 6,2 C 93 % 1011,2 hPa 0,2 l/m W-SW 0,00 h 47 W/m 33,9 km/h (5 Bft)
11.11.2017 15:00 6,4 C 93 % 1010,5 hPa 0,0 l/m W-SW 0,00 h 22 W/m 37,4 km/h (5 Bft)
11.11.2017 16:00 6,4 C 93 % 1010,0 hPa 0,0 l/m W-SW 0,00 h 8 W/m 30,3 km/h (5 Bft)
11.11.2017 17:00 6,5 C 94 % 1009,6 hPa 0,2 l/m W-SW 0,00 h 0 W/m 34,5 km/h (5 Bft)
11.11.2017 18:00 6,8 C 94 % 1009,3 hPa 0,2 l/m W-SW 0,00 h 0 W/m 34,7 km/h (5 Bft)
11.11.2017 19:00 6,9 C 95 % 1009,1 hPa 0,2 l/m W-SW 0,00 h 0 W/m 32,6 km/h (5 Bft)
11.11.2017 20:00 7,0 C 95 % 1009,0 hPa 0,6 l/m W-SW 0,00 h 0 W/m 31,5 km/h (5 Bft)
11.11.2017 21:00 7,1 C 96 % 1008,8 hPa 0,0 l/m W-SW 0,00 h 0 W/m 34,3 km/h (5 Bft)
11.11.2017 22:00 7,2 C 96 % 1008,8 hPa 0,4 l/m W-SW 0,00 h 0 W/m 32,9 km/h (5 Bft)
11.11.2017 23:00 7,4 C 96 % 1008,7 hPa 0,0 l/m W 0,00 h 0 W/m 29,0 km/h (5 Bft)
12.11.2017 00:00 7,7 C 96 % 1008,5 hPa 0,0 l/m W-SW 0,00 h 0 W/m 23,1 km/h (4 Bft)
12.11.2017 01:00 7,7 C 96 % 1008,0 hPa 0,4 l/m W-SW 0,00 h 0 W/m 24,4 km/h (4 Bft)
12.11.2017 02:00 7,7 C 97 % 1007,4 hPa 0,8 l/m W-SW 0,00 h 0 W/m 24,5 km/h (4 Bft)
12.11.2017 03:00 7,7 C 97 % 1006,7 hPa 0,0 l/m W-SW 0,00 h 0 W/m 24,4 km/h (4 Bft)
12.11.2017 04:00 7,9 C 97 % 1006,5 hPa 1,4 l/m W-SW 0,00 h 0 W/m 17,4 km/h (3 Bft)
12.11.2017 05:00 7,0 C 97 % 1006,2 hPa 1,4 l/m W-NW 0,00 h 0 W/m 1,7 km/h (1 Bft)
12.11.2017 06:00 5,8 C 97 % 1005,9 hPa 1,2 l/m N 0,00 h 0 W/m 5,2 km/h (1 Bft)
12.11.2017 07:00 5,2 C 97 % 1005,2 hPa 1,6 l/m N 0,00 h 5 W/m 1,5 km/h (1 Bft)
12.11.2017 08:00 5,1 C 97 % 1004,2 hPa 1,6 l/m N-NW 0,00 h 28 W/m 3,1 km/h (1 Bft)
12.11.2017 09:00 5,7 C 98 % 1002,8 hPa 1,4 l/m W 0,00 h 42 W/m 5,3 km/h (1 Bft)
12.11.2017 10:00 8,3 C 99 % 1001,5 hPa 0,6 l/m SW 0,00 h 52 W/m 29,5 km/h (5 Bft)
12.11.2017 11:00 8,5 C 96 % 1000,4 hPa 0,4 l/m W-SW 0,00 h 70 W/m 40,5 km/h (6 Bft)
12.11.2017 12:00 8,7 C 94 % 998,8 hPa 0,2 l/m W 0,00 h 100 W/m 40,2 km/h (6 Bft)
12.11.2017 13:00 8,7 C 91 % 997,3 hPa 0,2 l/m W-SW 0,00 h 112 W/m 45,6 km/h (6 Bft)
12.11.2017 14:00 8,8 C 90 % 995,4 hPa 0,0 l/m W-SW 0,00 h 81 W/m 49,8 km/h (6 Bft)
12.11.2017 15:00 6,7 C 87 % 995,9 hPa 5,4 l/m W-NW 0,00 h 17 W/m 37,4 km/h (5 Bft)
12.11.2017 16:00 3,2 C 94 % 996,2 hPa 4,0 l/m W-SW 0,00 h 5 W/m 21,4 km/h (4 Bft)
12.11.2017 17:00 3,8 C 96 % 997,7 hPa 1,0 l/m W-NW 0,00 h 0 W/m 16,1 km/h (3 Bft)
12.11.2017 18:00 3,0 C 95 % 1001,0 hPa 0,0 l/m W-NW 0,00 h 0 W/m 12,3 km/h (3 Bft)
12.11.2017 19:00 2,7 C 95 % 1002,6 hPa 0,0 l/m W-NW 0,00 h 0 W/m 13,0 km/h (3 Bft)
12.11.2017 20:00 2,4 C 95 % 1003,6 hPa 0,0 l/m W-NW 0,00 h 0 W/m 10,3 km/h (2 Bft)
12.11.2017 21:00 1,8 C 94 % 1003,8 hPa 0,0 l/m W-NW 0,00 h 0 W/m 8,3 km/h (2 Bft)
12.11.2017 22:00 1,1 C 94 % 1004,3 hPa 0,0 l/m W 0,00 h 0 W/m 9,0 km/h (2 Bft)
12.11.2017 23:00 1,2 C 94 % 1004,8 hPa 0,0 l/m W 0,00 h 0 W/m 9,3 km/h (2 Bft)
Min-Datum _ 12.11.17 12.11.17 12.11.17 - - - - 06.11.17
_ Min-Zeit 22:45 15:30 15:10 - - - - 00:00
Minimum _ 0,9 C 81 % 994,4 hPa - - - - 0,0 km/h (0 Bft)
Max-Datum _ 12.11.17 10.11.17 09.11.17 12.11.17 - 08.11.17 08.11.17 12.11.17
_ Max-Zeit 15:10 20:45 21:35 15:30 - 10:00 10:05 14:00
Maximum _ 9,1 C 100 % 1024,0 hPa 5,4 l/m - 0,08 h 216 W/m 62,8 km/h
SW (8 Bft)
Durchschnitt _ 5,0 C 95 % 1015,3 hPa #34,2 l/m W-SW #30 min. 53 W/m 12,4 km/h (3 Bft)